Temperature
27 25 24 25 25 26 26 26 26 27 28 27 26 25 25 26 25 25 24 24 24 24 23 23 23 23 22 22 22 21 21 21 20 20 20 20 20 20 19 19 19 19 19 19
25 24 26 27 27 27 27 26 26 27 28 27 25 25 25 25 25 25 25 24 24 24 23 23 23 23 22 22 22 21 21 21 21 21 20 20 20 20 20 19 19 19 19 19
25 26 28 28 28 27 27 26 27 27 27 26 26 25 24 25 25 26 25 25 24 24 23 23 23 23 23 22 22 22 21 21 21 21 20 20 20 20 19 19 19 19 19 19
25 27 28 28 28 28 26 28 28 27 25 24 25 23 23 24 24 25 25 25 24 24 24 23 23 23 23 23 22 22 22 21 21 21 21 20 20 20 20 20 19 19 19 19
25 27 28 28 28 28 27 28 28 27 25 23 23 23 23 23 23 24 24 25 25 24 24 24 23 23 23 23 22 22 22 21 21 21 20 20 20 20 20 20 19 19 19 19
26 28 28 28 29 29 28 27 25 23 22 22 23 23 23 22 23 24 24 25 25 24 24 24 24 23 23 23 22 22 22 22 21 21 20 20 20 20 20 20 19 19 19 19
26 27 28 29 28 27 26 23 22 23 21 22 22 23 22 24 25 25 24 25 25 25 24 24 23 23 23 23 22 22 22 21 21 21 21 20 20 20 20 20 19 19 19 19
24 25 27 28 27 26 26 23 22 23 22 22 23 23 24 25 25 26 25 25 25 25 24 24 24 24 23 23 23 22 22 22 21 21 21 20 20 20 20 20 20 19 19 19
24 24 27 29 29 27 26 24 23 22 22 22 22 23 24 25 24 24 25 25 25 25 24 24 24 24 24 23 23 23 22 22 22 21 21 20 20 20 20 20 20 19 19 19
24 25 26 27 28 28 26 25 21 21 22 22 23 23 22 24 23 23 23 24 24 24 24 24 24 24 24 23 23 23 22 22 22 21 21 21 20 20 20 20 20 19 19 19
24 23 24 26 26 26 26 25 22 20 21 21 22 22 24 23 23 23 23 24 24 24 24 24 24 24 23 23 23 23 22 22 21 21 21 20 20 20 20 20 19 19 19 19
23 21 22 24 26 27 26 25 22 22 21 20 21 22 24 23 23 23 23 23 23 24 24 24 23 23 23 23 23 22 22 22 21 21 21 20 20 20 20 19 19 19 19 19
23 21 21 22 23 24 25 25 23 21 20 20 21 22 23 22 22 23 23 23 23 23 23 23 23 23 23 22 23 22 22 22 21 21 21 20 20 20 19 19 19 19 19 19
23 20 21 22 22 23 24 25 25 22 20 21 21 22 22 22 21 22 22 23 23 23 23 23 23 23 23 23 23 22 22 22 21 21 21 20 20 20 20 19 19 19 19 19
21 20 22 22 23 25 25 25 25 24 22 21 22 22 21 21 21 21 22 22 22 22 22 22 22 22 22 22 22 22 22 21 21 21 20 20 20 20 20 19 19 19 19 19
19 21 21 22 24 24 24 25 25 24 24 23 22 21 21 21 21 21 21 21 21 21 21 21 22 22 22 22 22 22 21 21 21 21 20 20 20 20 19 19 19 19 19 18
18 19 20 20 22 23 22 23 23 23 23 22 21 20 20 19 19 20 20 20 20 20 20 20 21 21 22 22 21 21 21 21 21 21 20 20 20 19 19 19 19 19 18 18
19 18 17 18 21 21 21 22 23 23 22 21 21 20 20 19 20 20 20 20 20 20 20 20 20 21 21 21 21 21 21 20 20 20 20 19 19 19 19 19 18 18 18 18
18 18 17 17 19 20 21 22 23 22 20 20 20 20 20 20 20 19 20 20 20 20 20 20 20 20 20 20 20 20 20 19 19 20 19 19 19 19 18 18 18 18 18 18
17 17 17 17 19 19 20 22 23 21 19 19 19 19 19 19 17 18 19 19 19 19 20 19 19 20 20 19 19 20 19 19 19 19 19 19 19 19 18 18 18 18 17 17
18 17 17 17 18 18 20 21 22 20 18 19 19 19 19 18 18 18 19 19 19 19 19 19 19 19 19 19 19 19 19 19 19 19 19 18 18 18 18 18 17 17 17 17
17 16 16 16 17 18 19 19 18 17 18 19 19 19 18 18 18 18 18 19 19 19 19 19 19 18 19 19 18 18 18 18 18 18 18 18 18 18 17 17 17 17 17 16
16 16 15 15 16 17 19 18 19 19 18 18 18 18 18 18 17 18 18 18 18 18 18 18 18 18 18 18 18 18 18 18 18 17 17 17 17 17 17 17 17 16 16 16
16 16 15 15 16 17 18 19 19 19 18 18 18 18 18 17 17 17 17 17 17 17 17 17 18 18 18 18 18 18 17 17 17 17 17 17 17 16 16 16 16 16 15 15
16 16 15 15 15 17 17 18 18 18 18 18 18 17 17 17 17 17 17 17 17 17 17 17 17 17 17 17 17 17 17 17 17 16 16 16 16 16 16 16 15 15 15 15
15 15 14 14 15 15 16 17 17 18 17 17 17 17 17 17 16 16 16 16 16 16 16 16 16 16 16 16 16 16 16 16 16 16 16 15 15 15 15 15 15 15 15 15
Wind_Speed
2 1 4 7 6 6 4 3 6 7 3 3 3 4 7 10 11 11 11 12 13 13 11 11 11 11 10 8 8 8 7 6 5 3 3 3 2 1 1 2 3 4 4 4
3 5 10 7 6 5 5 3 5 5 1 3 3 3 5 8 11 13 13 13 13 11 10 11 10 10 10 10 9 9 8 7 6 4 3 3 2 2 2 1 2 3 4 4
7 9 6 5 6 4 4 4 5 4 1 3 4 1 3 3 4 6 9 11 13 15 15 13 12 11 10 10 11 10 9 7 7 5 3 2 2 2 1 0 1 1 3 3
6 8 5 5 6 4 5 6 4 2 2 1 2 1 7 4 3 6 7 9 12 13 13 13 13 12 12 11 10 9 8 8 7 6 5 5 4 3 2 2 2 1 2 3
6 6 5 6 7 5 6 4 1 2 3 2 2 2 7 1 4 7 8 11 12 12 14 14 14 14 12 11 10 9 8 7 6 6 6 5 4 3 2 2 2 1 1 2
8 7 5 7 5 4 3 3 6 5 5 1 4 4 6 5 8 7 8 10 11 12 12 12 12 11 10 10 9 9 9 8 7 7 6 6 5 4 4 3 2 2 1 1
7 8 5 2 1 3 3 5 4 5 4 4 4 2 7 7 8 9 10 11 12 12 12 12 12 12 11 11 11 9 9 8 7 7 6 6 5 5 5 4 4 3 2 1
2 7 5 2 5 5 4 8 7 4 4 4 3 3 6 5 3 5 8 9 10 11 11 12 13 14 13 13 11 10 10 9 8 8 7 6 6 5 4 4 4 4 3 3
5 6 6 5 4 6 3 4 8 7 2 0 3 4 5 3 3 4 5 7 8 10 10 11 11 12 12 12 12 12 11 9 9 9 7 5 6 5 5 5 4 3 3 3
7 4 6 5 2 2 5 6 6 5 4 2 3 3 4 3 1 3 4 5 6 8 9 9 10 11 10 10 10 10 10 10 9 9 8 7 6 6 5 5 4 4 3 3
4 3 5 4 1 2 1 3 4 4 6 6 3 6 6 8 6 5 4 3 5 7 9 9 8 9 10 9 9 10 9 9 8 8 6 6 5 5 5 4 5 4 4 4
3 5 2 6 7 5 5 4 6 4 3 5 5 6 4 5 5 6 6 5 5 6 7 8 8 8 7 7 8 8 8 8 8 7 6 5 4 4 4 4 4 4 4 3
4 6 2 7 8 6 3 1 3 5 4 4 4 5 2 4 4 5 7 7 5 6 6 7 8 8 8 7 7 7 8 8 7 7 6 6 5 4 4 4 4 4 3 3
5 5 6 7 6 4 4 4 1 5 3 3 5 5 2 2 4 4 6 6 7 6 6 7 7 6 7 6 6 6 7 7 8 7 7 6 6 6 6 5 4 4 3 3
5 4 2 4 4 2 3 4 2 1 4 6 5 5 5 5 6 6 6 7 6 5 5 6 6 5 5 5 5 6 6 6 7 7 7 7 7 6 5 4 4 3 4 4
4 3 2 3 2 3 4 4 2 2 1 3 4 1 3 1 4 6 6 7 6 4 3 4 4 5 5 6 6 6 6 6 6 6 6 6 5 5 5 4 4 3 4 4
2 4 3 3 4 4 4 3 2 2 2 4 3 3 2 4 5 5 6 7 6 5 3 2 3 4 4 6 6 6 5 5 6 6 5 4 5 5 5 5 5 5 4 4
5 4 3 1 3 2 6 2 4 6 5 4 3 3 6 6 4 3 4 6 5 3 2 2 2 1 1 3 4 4 4 5 5 4 3 3 4 4 4 5 5 5 4 4
6 7 4 3 2 3 4 4 1 3 4 4 6 6 6 6 6 4 2 4 3 3 2 2 1 2 2 3 4 5 5 4 4 3 3 4 4 4 4 4 5 4 4 4
5 5 5 3 3 4 5 6 3 5 2 4 6 6 5 6 3 2 2 2 2 2 2 2 1 2 3 2 3 4 4 4 4 4 4 4 4 4 4 4 4 3 3 4
3 3 3 3 3 4 5 5 4 2 4 1 3 5 3 2 3 3 1 1 1 1 1 2 2 1 1 2 4 3 3 3 5 4 3 2 3 4 4 4 3 3 3 3
4 2 2 3 2 5 5 5 3 4 2 2 2 3 3 2 2 1 1 1 1 1 1 2 2 1 0 2 4 3 3 4 2 2 3 3 3 3 3 3 2 2 3 3
2 5 5 5 5 4 1 3 3 3 3 1 2 2 2 2 1 1 1 1 1 0 1 2 3 1 1 0 3 3 4 2 2 2 3 3 3 2 2 3 3 3 3 3
3 1 3 2 1 1 2 2 2 3 3 2 2 2 3 2 1 1 1 1 1 1 0 1 2 1 1 1 2 4 3 2 2 2 3 3 2 2 1 2 3 3 3 3
2 2 2 1 2 3 4 3 2 3 4 4 3 2 2 2 1 0 1 1 1 1 1 1 2 2 2 2 2 2 2 2 2 1 2 2 2 2 2 2 2 3 4 5
2 2 3 4 4 3 3 2 2 3 3 2 2 2 1 1 1 1 2 2 1 1 1 1 1 1 1 1 1 1 1 2 2 1 2 2 2 2 2 2 1 1 2 2
Wind_Direction
271 96 238 233 210 206 232 256 262 260 219 132 151 166 185 180 167 168 169 169 172 175 172 165 164 161 156 154 152 153 152 158 149 141 142 138 159 170 181 186 177 172 167 158
351 259 241 239 243 241 235 255 273 287 265 132 149 198 204 186 184 179 177 177 177 169 167 171 168 166 165 165 162 160 163 164 163 162 165 162 158 174 181 187 166 169 161 160
225 250 252 250 258 260 265 219 237 234 13 55 100 332 250 221 181 176 176 176 178 175 174 174 173 173 170 172 173 171 170 167 167 159 142 126 87 53 62 112 173 183 160 159
248 255 255 258 248 218 251 242 234 192 101 311 103 247 271 225 206 187 186 185 184 182 177 177 176 176 177 178 174 168 167 166 166 158 154 154 159 172 198 185 179 191 168 161
257 259 244 247 243 212 223 234 128 122 119 51 7 145 279 222 207 209 198 192 189 182 180 179 179 178 176 173 167 164 159 162 164 163 168 166 171 183 180 152 147 168 170 167
254 262 231 226 244 214 179 56 37 51 73 23 245 176 259 223 207 204 197 189 185 180 178 178 178 172 171 171 168 164 160 167 169 167 168 170 173 173 161 160 162 174 171 174
298 286 271 229 351 321 88 86 31 0 10 255 254 191 245 238 205 194 190 189 186 177 173 173 173 173 174 174 172 168 167 172 174 168 171 172 169 167 168 170 173 170 167 189
263 287 265 226 183 205 212 141 160 191 216 273 312 238 260 265 197 177 181 176 176 174 173 175 178 177 178 177 172 169 171 174 175 176 180 178 172 173 177 175 172 177 189 200
194 255 277 253 213 171 183 176 169 144 165 221 289 295 320 13 71 108 140 148 161 168 168 169 171 173 175 173 174 175 174 176 179 182 180 181 179 177 176 178 177 184 196 199
169 249 294 299 355 6 154 157 99 118 147 220 290 274 237 249 126 102 113 141 156 159 159 160 166 169 170 173 174 173 173 179 183 184 185 188 188 185 180 178 183 187 195 198
143 164 307 353 123 211 55 87 103 121 149 155 209 262 228 199 175 152 140 121 144 154 158 155 157 160 161 164 165 169 173 176 182 187 188 188 189 190 183 187 196 194 193 192
151 130 236 265 264 226 175 162 135 143 211 165 169 261 271 167 142 137 126 117 112 129 141 151 152 147 154 164 167 170 173 176 184 184 178 181 184 189 192 199 203 196 196 199
121 106 57 338 339 354 41 61 130 133 129 149 162 249 310 111 111 120 123 125 113 111 127 133 143 154 165 170 167 167 172 178 180 176 175 178 185 194 205 209 202 192 189 199
117 104 150 193 230 272 316 323 52 105 133 184 198 204 255 150 136 119 114 119 119 111 122 140 147 156 159 161 165 166 173 176 175 175 177 182 192 202 210 209 199 195 192 196
92 113 169 220 250 304 318 309 323 94 180 179 198 184 218 203 175 150 125 114 102 117 127 140 142 147 149 155 163 169 173 175 173 172 182 192 193 194 197 199 196 196 198 206
65 108 54 336 307 356 350 347 7 11 121 138 123 212 262 162 100 109 115 117 116 116 114 120 128 136 150 161 167 168 172 174 167 173 188 192 185 186 190 197 196 200 206 208
59 98 77 305 315 20 337 327 70 51 42 127 161 222 127 90 108 137 136 127 128 130 116 93 124 153 167 168 161 164 174 167 167 177 186 190 186 190 196 200 198 207 210 207
133 110 123 100 37 219 240 279 105 92 51 72 99 108 121 135 140 134 123 116 107 102 107 113 102 112 106 127 144 149 146 152 156 163 173 186 196 202 202 197 203 208 205 207
143 137 128 129 165 271 309 326 26 105 31 43 91 87 85 96 76 56 79 104 110 121 136 130 131 128 119 113 129 127 134 144 150 163 176 185 191 196 196 202 211 210 202 214
74 102 123 134 154 216 256 301 324 93 30 7 85 96 94 79 74 287 342 71 71 67 60 60 61 84 107 130 132 130 151 156 178 195 201 198 192 193 203 213 215 208 203 212
46 50 119 157 193 253 279 312 27 96 230 278 107 119 109 116 189 223 316 24 71 68 60 72 73 93 151 144 135 145 166 197 213 205 198 202 203 204 206 209 210 206 209 215
151 141 170 144 172 248 314 34 94 202 222 139 103 114 103 114 126 107 58 32 27 51 59 96 95 56 219 119 126 151 197 219 207 185 189 204 212 214 213 204 212 209 201 213
143 179 176 174 203 240 344 115 160 143 113 97 102 96 98 91 72 35 56 60 340 232 166 120 118 88 341 167 146 186 226 203 162 176 202 214 217 216 203 194 206 216 213 219
326 50 102 81 283 356 29 54 73 102 121 130 125 125 113 109 98 8 355 331 321 328 248 163 128 142 269 269 211 213 218 174 165 192 218 214 215 225 223 208 206 209 217 221
278 34 69 87 285 357 359 3 36 50 60 62 62 95 136 127 114 175 291 303 299 306 292 234 194 205 227 254 236 221 191 159 175 207 227 222 217 214 221 224 221 219 225 215
293 169 162 223 236 202 260 299 65 78 71 73 49 6 351 154 208 253 259 258 268 260 265 273 239 210 215 221 247 221 187 172 177 222 252 236 223 218 211 217 275 278 246 246
Height
1490 1496 1501 1497 1495 1497 1500 1503 1505 1496 1487 1492 1498 1500 1497 1496 1498 1500 1502 1505 1507 1509 1511 1513 1515 1517 1518 1519 1520 1521 1522 1524 1525 1526 1527 1528 1529 1530 1531 1531 1532 1532 1532 1532
1496 1499 1489 1487 1489 1492 1496 1503 1501 1492 1486 1492 1499 1500 1496 1495 1495 1497 1499 1502 1505 1507 1510 1512 1514 1515 1516 1518 1519 1520 1522 1523 1525 1526 1527 1529 1530 1531 1531 1532 1532 1532 1532 1532
1498 1490 1483 1486 1489 1493 1495 1499 1498 1497 1492 1493 1499 1507 1501 1496 1496 1497 1499 1500 1502 1504 1506 1509 1511 1513 1515 1516 1518 1519 1521 1523 1524 1526 1528 1529 1530 1531 1531 1531 1531 1532 1532 1532
1490 1483 1483 1485 1488 1490 1499 1487 1488 1492 1502 1512 1507 1526 1508 1499 1497 1496 1497 1498 1500 1502 1504 1506 1508 1511 1512 1514 1517 1519 1521 1523 1524 1526 1527 1528 1528 1529 1530 1531 1531 1531 1531 1531
1490 1481 1482 1486 1483 1482 1488 1481 1485 1492 1502 1513 1512 1522 1513 1499 1500 1495 1494 1495 1497 1499 1501 1503 1506 1508 1511 1513 1516 1518 1520 1522 1524 1525 1526 1527 1528 1529 1530 1530 1531 1531 1531 1531
1482 1477 1477 1478 1475 1477 1480 1485 1492 1501 1511 1527 1516 1520 1517 1502 1495 1492 1491 1492 1494 1496 1499 1501 1504 1507 1510 1512 1514 1516 1518 1520 1522 1524 1525 1526 1527 1528 1529 1529 1530 1530 1530 1531
1488 1479 1474 1473 1479 1479 1483 1503 1524 1528 1536 1532 1513 1515 1511 1489 1483 1485 1487 1489 1491 1494 1496 1500 1503 1505 1508 1510 1512 1514 1517 1519 1521 1522 1524 1525 1526 1527 1527 1528 1529 1529 1529 1530
1500 1498 1477 1472 1477 1485 1486 1499 1524 1536 1538 1530 1515 1515 1498 1482 1479 1481 1483 1485 1488 1491 1494 1497 1499 1502 1505 1508 1511 1513 1515 1517 1519 1520 1522 1523 1525 1526 1526 1527 1528 1528 1528 1529
1498 1495 1472 1467 1468 1474 1485 1493 1496 1515 1523 1530 1523 1508 1493 1481 1481 1481 1482 1485 1488 1490 1493 1495 1498 1501 1503 1506 1508 1511 1513 1515 1517 1518 1520 1522 1523 1524 1525 1526 1527 1527 1528 1528
1483 1491 1477 1469 1467 1470 1475 1483 1500 1514 1530 1537 1525 1515 1508 1491 1486 1483 1483 1484 1486 1488 1491 1494 1497 1499 1502 1504 1507 1509 1511 1513 1515 1517 1518 1520 1521 1523 1524 1525 1525 1526 1526 1527
1477 1491 1486 1478 1478 1481 1481 1486 1496 1510 1515 1531 1536 1520 1486 1484 1482 1483 1483 1484 1485 1487 1489 1492 1495 1497 1500 1503 1505 1507 1509 1511 1513 1515 1516 1518 1519 1521 1522 1523 1524 1524 1525 1525
1477 1490 1498 1486 1473 1468 1473 1481 1493 1510 1515 1517 1523 1514 1478 1479 1480 1480 1482 1484 1486 1487 1489 1492 1494 1497 1500 1502 1503 1505 1507 1509 1511 1513 1515 1516 1518 1519 1520 1521 1521 1522 1522 1523
1475 1491 1506 1501 1491 1478 1477 1478 1484 1494 1507 1516 1521 1510 1481 1480 1481 1481 1482 1484 1486 1488 1490 1492 1494 1496 1498 1500 1502 1503 1505 1507 1509 1511 1513 1514 1515 1517 1517 1518 1519 1520 1520 1521
1470 1489 1501 1507 1501 1488 1484 1480 1479 1491 1508 1511 1506 1500 1488 1484 1483 1483 1482 1485 1487 1489 1491 1492 1493 1495 1497 1499 1501 1502 1504 1505 1507 1509 1510 1511 1513 1514 1515 1516 1517 1517 1517 1518
1472 1488 1487 1487 1482 1479 1479 1479 1477 1484 1490 1499 1496 1493 1488 1484 1483 1483 1484 1485 1488 1490 1492 1493 1493 1494 1496 1498 1499 1501 1502 1504 1505 1507 1508 1509 1510 1511 1512 1513 1514 1514 1515 1515
1476 1485 1486 1487 1480 1479 1481 1478 1477 1479 1481 1486 1489 1491 1483 1482 1483 1484 1485 1486 1488 1490 1491 1492 1492 1493 1494 1495 1497 1499 1500 1502 1503 1504 1505 1506 1507 1509 1509 1510 1511 1511 1512 1512
1482 1487 1495 1499 1487 1485 1494 1484 1481 1482 1481 1484 1492 1489 1483 1484 1484 1485 1486 1486 1487 1489 1490 1491 1491 1492 1492 1493 1495 1496 1498 1499 1501 1501 1502 1503 1504 1505 1506 1507 1507 1507 1508 1508
1482 1490 1499 1502 1497 1507 1494 1477 1476 1480 1482 1481 1482 1482 1482 1483 1485 1486 1486 1487 1487 1489 1490 1490 1491 1491 1492 1492 1494 1495 1496 1497 1498 1499 1499 1500 1501 1502 1502 1503 1504 1504 1504 1504
1474 1485 1498 1506 1507 1501 1488 1479 1478 1482 1488 1483 1483 1484 1484 1485 1486 1488 1488 1488 1489 1489 1489 1489 1489 1490 1491 1491 1492 1492 1494 1495 1496 1496 1497 1497 1498 1499 1499 1500 1500 1500 1500 1500
1475 1481 1494 1502 1505 1509 1494 1479 1475 1479 1494 1486 1484 1485 1485 1484 1491 1491 1489 1488 1489 1488 1488 1488 1488 1488 1488 1489 1490 1490 1491 1492 1492 1493 1494 1494 1495 1496 1496 1496 1496 1496 1497 1496
1487 1491 1496 1501 1504 1499 1484 1477 1475 1494 1496 1487 1485 1485 1485 1486 1488 1488 1487 1487 1487 1487 1487 1487 1487 1487 1486 1487 1488 1488 1488 1488 1489 1490 1490 1491 1492 1492 1492 1493 1493 1493 1493 1493
1491 1496 1499 1502 1506 1502 1482 1480 1485 1489 1485 1485 1485 1485 1485 1485 1485 1486 1486 1485 1485 1485 1485 1485 1485 1485 1485 1485 1486 1486 1485 1485 1486 1486 1487 1487 1488 1489 1489 1489 1489 1489 1489 1489
1487 1489 1491 1494 1497 1487 1482 1482 1483 1482 1483 1483 1484 1485 1485 1484 1484 1484 1484 1484 1484 1483 1483 1483 1482 1482 1482 1483 1483 1482 1483 1483 1483 1483 1483 1484 1484 1485 1485 1485 1485 1485 1485 1485
1485 1482 1486 1489 1487 1484 1483 1482 1482 1482 1482 1483 1483 1484 1484 1483 1483 1483 1483 1482 1482 1481 1481 1481 1480 1480 1479 1479 1479 1479 1479 1480 1479 1479 1479 1480 1480 1480 1481 1481 1481 1481 1480 1480
1485 1484 1487 1489 1486 1484 1484 1483 1482 1482 1482 1482 1482 1482 1482 1482 1482 1482 1481 1480 1480 1479 1479 1478 1478 1477 1477 1476 1475 1475 1476 1476 1476 1476 1476 1475 1476 1476 1476 1476 1476 1476 1476 1476
1484 1485 1488 1489 1485 1485 1484 1483 1482 1481 1481 1481 1481 1480 1480 1480 1480 1479 1479 1478 1478 1477 1476 1476 1475 1474 1474 1473 1472 1472 1473 1473 1472 1472 1472 1472 1471 1471 1471 1472 1472 1472 1472 1471